STARLINK-1150 (45067 NORAD) Tracking and Keplerian Element Data

This shows tracking and keplerian element data for the satellite.

Feedback or suggestion? Click here.




ElementValue
Catalog45067
NameSTARLINK-1150
Epoch Orbit2453
Epoch Day186.91667824
Epoch Year2020
RAAN216.1189
Inclination53.0052
Eccentricity8.57E-05
Argument of Perigee122.6785
Mean Anonmoly263.2916
Mean Motion15.05590792
Decay Rate0.00018401
L11 45067U 20006Z 20186.91667824 .00018401 00000-0 12784-2 0 9998
L22 45067 53.0052 216.1189 0000857 122.6785 263.2916 15.05590792 24534

Live tracking and technical data element details for STARLINK-1150 (NORAD 45067). STARLINK-1150 can be tracked NOW for your location showing map with azimuth and elevation plus other details from your city location.

Track the satellite on the map from your city or location and see movement details for azimuth, elevation, latitude, longitude, range, height, and movement on the map or in text.







IsCatalogInMostPopularTable: catalog: 45067, numindb: 29
Update: records affected: 1



GetName: 45067 STARLINK-1150

Hit Count: updated at: Mon, 06 Jul 2020 04:37:17 GMT